Immokalee Regional Airport [I, FL

6:57 AM EDT on April 26, 2017 (GMT -0400)
Immokalee

Weather History for KIMM - November, 2013

Change the Weather History Date:

Saturday, November 30, 2013

  Actual Average (KRSW) Record (KRSW)
Temperature  
Mean Temperature 66 °F -  
Max Temperature 78 °F 77 °F 89 °F (1997)
Min Temperature 55 °F 59 °F 34 °F (1959)
Cooling Degree Days 2    
Growing Degree Days 16 (Base 50)    
Moisture  
Dew Point 68 °F    
Average Humidity 89    
Maximum Humidity 100    
Minimum Humidity 65    
Precipitation  
Precipitation 0.00 in - - ()
Sea Level Pressure  
Sea Level Pressure 30.21 in    
Wind  
Wind Speed 9 mph (NNE)    
Max Wind Speed 17 mph    
Max Gust Speed 22 mph    
Visibility 10 miles    
Events      
Averages and records for this station are not official NWS values.
T = Trace of Precipitation, MM = Missing Value Source: NWS Daily Summary

Daily Weather History Graph

Daily Weather History Graph

Search for Another Location

Airport or City:

Trip Planner

Search our weather history database for the weather conditions in past years. The results will help you decide how hot, cold, wet, or windy it might be!

Date:

Astronomy

Nov. 30, 2013 Rise Set
Actual Time 6:55 AM EST 5:32 PM EST
Civil Twilight 6:30 AM EST 5:57 PM EST
Nautical Twilight 6:02 AM EST 6:26 PM EST
Astronomical Twilight 5:34 AM EST 6:54 PM EST
Moon 4:17 AM EST (11/30) 3:45 PM EST (11/30)
Length of Visible Light 11h 26m
Length of Day
10h 36m
Waning Crescent, 7% of the Moon is Illuminated
Nov 30
Waning Crescent
Dec 2
New
Dec 9
First Quarter
Dec 17
Full
Dec 25
Last Quarter

Hourly Weather History & Observations

Time (EST) Temp. Dew Point Humidity Pressure Visibility Wind Dir Wind Speed Gust Speed Precip Events Conditions
12:15 AM 57.2 °F - N/A% 30.27 in 10.0 mi North 8.1 mph - 0.00 in   Clear
12:35 AM 57.2 °F - N/A% 30.27 in 10.0 mi North 6.9 mph - 0.00 in   Clear
12:55 AM 57.2 °F - N/A% 30.26 in 10.0 mi North 10.4 mph - 0.00 in   Clear
1:15 AM 57.2 °F - N/A% 30.25 in 10.0 mi North 8.1 mph - 0.00 in   Clear
1:35 AM 57.2 °F - N/A% 30.26 in 10.0 mi North 8.1 mph - 0.00 in   Clear
1:55 AM 57.2 °F - N/A% 30.25 in 10.0 mi North 8.1 mph - 0.00 in   Clear
2:15 AM 55.4 °F - N/A% 30.25 in 10.0 mi North 8.1 mph - 0.00 in   Clear
2:35 AM 55.4 °F - N/A% 30.24 in 10.0 mi North 8.1 mph - 0.00 in   Clear
2:55 AM 55.4 °F - N/A% 30.24 in 10.0 mi North 8.1 mph - 0.00 in   Clear
3:15 AM 55.4 °F - N/A% 30.24 in 10.0 mi North 8.1 mph - 0.00 in   Clear
3:35 AM 55.4 °F - N/A% 30.23 in 10.0 mi North 6.9 mph - 0.00 in   Clear
3:55 AM 55.4 °F - N/A% 30.23 in 10.0 mi North 6.9 mph - 0.00 in   Clear
4:15 AM 55.4 °F - N/A% 30.23 in 10.0 mi North 5.8 mph - 0.00 in   Clear
4:35 AM 55.4 °F - N/A% 30.22 in 10.0 mi North 5.8 mph - 0.00 in   Clear
4:55 AM 55.4 °F - N/A% 30.22 in 10.0 mi North 4.6 mph - 0.00 in   Clear
5:15 AM 55.4 °F - N/A% 30.22 in 10.0 mi NNW 4.6 mph - 0.00 in   Clear
5:35 AM 55.4 °F - N/A% 30.23 in 10.0 mi NNW 5.8 mph - 0.00 in   Clear
5:55 AM 55.4 °F - N/A% 30.23 in 10.0 mi North 5.8 mph - 0.00 in   Clear
6:15 AM 55.4 °F - N/A% 30.23 in 9.0 mi North 6.9 mph - 0.00 in   Clear
6:35 AM 55.4 °F - N/A% 30.23 in 10.0 mi North 6.9 mph - 0.00 in   Partly Cloudy
6:55 AM 55.4 °F - N/A% 30.24 in 10.0 mi North 6.9 mph - 0.00 in   Partly Cloudy
7:15 AM 57.2 °F - N/A% 30.24 in 9.0 mi North 6.9 mph - 0.00 in   Mostly Cloudy
7:35 AM 57.2 °F - N/A% 30.24 in 9.0 mi North 5.8 mph - 0.00 in   Overcast
7:55 AM 59.0 °F - N/A% 30.24 in 10.0 mi North 6.9 mph - 0.00 in   Scattered Clouds
8:15 AM 60.8 °F - N/A% 30.25 in 10.0 mi North 11.5 mph - 0.00 in   Scattered Clouds
8:35 AM 60.8 °F - N/A% 30.25 in 10.0 mi North 13.8 mph - 0.00 in   Overcast
8:55 AM 62.6 °F - N/A% 30.26 in 9.0 mi North 8.1 mph - 0.00 in   Overcast
9:15 AM 62.6 °F - N/A% 30.27 in 10.0 mi North 11.5 mph - 0.00 in   Overcast
9:35 AM 64.4 °F - N/A% 30.27 in 10.0 mi North 12.7 mph - 0.00 in   Overcast
9:55 AM 66.2 °F 66.2 °F 100% 30.26 in 10.0 mi North 11.5 mph - 0.00 in   Overcast
10:15 AM 71.6 °F 71.6 °F 100% 30.25 in 10.0 mi NNE 12.7 mph 16.1 mph 0.00 in   Mostly Cloudy
10:35 AM 75.2 °F 71.6 °F 89% 30.25 in 10.0 mi NNE 12.7 mph - 0.00 in   Partly Cloudy
10:55 AM 75.2 °F 69.8 °F 83% 30.24 in 10.0 mi NNE 16.1 mph - 0.00 in   Partly Cloudy
11:15 AM 78.8 °F 69.8 °F 74% 30.24 in 10.0 mi NNE 17.3 mph - 0.00 in   Scattered Clouds
11:35 AM 77.0 °F 68.0 °F 74% 30.23 in 10.0 mi NNE 15.0 mph 21.9 mph 0.00 in   Scattered Clouds
11:55 AM 78.8 °F 66.2 °F 65% 30.22 in 10.0 mi NE 15.0 mph 18.4 mph 0.00 in   Scattered Clouds
12:15 PM 78.8 °F 66.2 °F 65% 30.21 in 10.0 mi NE 16.1 mph 20.7 mph 0.00 in   Scattered Clouds
12:35 PM 78.8 °F 66.2 °F 65% 30.21 in 10.0 mi NE 15.0 mph 19.6 mph 0.00 in   Partly Cloudy
12:55 PM 78.8 °F 66.2 °F 65% 30.19 in 10.0 mi NE 12.7 mph 18.4 mph 0.00 in   Mostly Cloudy
1:15 PM 77.0 °F 66.2 °F 69% 30.18 in 10.0 mi NE 16.1 mph - 0.00 in   Overcast
1:35 PM 78.8 °F 68.0 °F 69% 30.18 in 10.0 mi NE 16.1 mph - 0.00 in   Mostly Cloudy
1:55 PM 75.2 °F 69.8 °F 83% 30.18 in 10.0 mi NE 17.3 mph - 0.00 in   Mostly Cloudy
2:15 PM 75.2 °F 69.8 °F 83% 30.18 in 10.0 mi NE 17.3 mph - 0.00 in   Overcast
2:35 PM 71.6 °F 71.6 °F 100% 30.18 in 3.0 mi NE 15.0 mph - 0.00 in   Overcast
2:55 PM 69.8 °F - N/A% 30.19 in 4.0 mi NE 10.4 mph - 0.00 in   Overcast
3:15 PM 68.0 °F - N/A% 30.18 in 7.0 mi ENE 11.5 mph 16.1 mph 0.00 in   Overcast
3:35 PM 69.8 °F 69.8 °F 100% 30.17 in 10.0 mi ENE 6.9 mph - 0.00 in   Overcast
3:55 PM 69.8 °F 69.8 °F 100% 30.16 in 10.0 mi NE 8.1 mph - 0.00 in   Overcast
4:15 PM 71.6 °F 71.6 °F 100% 30.16 in 10.0 mi ENE 6.9 mph - 0.00 in   Mostly Cloudy
4:35 PM 71.6 °F 71.6 °F 100% 30.16 in 10.0 mi NE 6.9 mph - 0.00 in   Mostly Cloudy
4:55 PM 71.6 °F 71.6 °F 100% 30.16 in 10.0 mi NE 8.1 mph - 0.00 in   Mostly Cloudy
5:15 PM 71.6 °F 71.6 °F 100% 30.16 in 10.0 mi NE 6.9 mph - 0.00 in   Mostly Cloudy
5:35 PM 71.6 °F 71.6 °F 100% 30.16 in 10.0 mi NE 8.1 mph - 0.00 in   Mostly Cloudy
5:55 PM 71.6 °F 69.8 °F 94% 30.16 in 10.0 mi NE 8.1 mph - 0.00 in   Mostly Cloudy
6:15 PM 71.6 °F 69.8 °F 94% 30.16 in 10.0 mi NE 8.1 mph - 0.00 in   Mostly Cloudy
6:35 PM 71.6 °F 68.0 °F 88% 30.16 in 10.0 mi NNE 8.1 mph - 0.00 in   Mostly Cloudy
6:55 PM 69.8 °F 68.0 °F 94% 30.17 in 10.0 mi North 5.8 mph - 0.00 in   Overcast
7:15 PM 69.8 °F 68.0 °F 94% 30.18 in 10.0 mi North 8.1 mph - 0.00 in   Overcast
7:35 PM 69.8 °F 66.2 °F 88% 30.18 in 10.0 mi North 6.9 mph - 0.00 in   Overcast
7:55 PM 69.8 °F 66.2 °F 88% 30.18 in 10.0 mi North 5.8 mph - 0.00 in   Overcast
8:15 PM 69.8 °F 66.2 °F 88% 30.18 in 10.0 mi North 5.8 mph - 0.00 in   Overcast
8:35 PM 68.0 °F 66.2 °F 94% 30.18 in 10.0 mi NNE 6.9 mph - 0.00 in   Overcast
8:55 PM 68.0 °F 66.2 °F 94% 30.18 in 10.0 mi NNE 8.1 mph - 0.00 in   Overcast
9:15 PM 68.0 °F 66.2 °F 94% 30.18 in 10.0 mi NNE 6.9 mph - 0.00 in   Overcast
9:35 PM 66.2 °F 66.2 °F 100% 30.18 in 10.0 mi NNE 6.9 mph - 0.00 in   Overcast
9:55 PM 66.2 °F 66.2 °F 100% 30.18 in 10.0 mi North 6.9 mph - 0.00 in   Mostly Cloudy
10:15 PM 64.4 °F 64.4 °F 100% 30.18 in 10.0 mi NNW 3.5 mph - 0.00 in   Scattered Clouds
10:35 PM 62.6 °F 62.6 °F 100% 30.18 in 10.0 mi North 6.9 mph - 0.00 in   Clear
10:55 PM 62.6 °F 62.6 °F 100% 30.17 in 10.0 mi North 5.8 mph - 0.00 in   Clear
11:15 PM 60.8 °F - N/A% 30.17 in 10.0 mi Calm Calm - 0.00 in   Clear
11:35 PM 60.8 °F - N/A% 30.17 in 10.0 mi North 3.5 mph - 0.00 in   Clear
11:55 PM 60.8 °F - N/A% 30.17 in 10.0 mi North 3.5 mph - 0.00 in   Clear